FW0097 Weather Reports


time (UTC)temp
C
wind
direction
speed
KPH
gust
KPH
rain 1hr
cm
rain 24hr
cm
rain mn
cm
humidity
%
barometer
mb
20220812003042 13 43 0.0 0.0 0.00 0.00 0.00 82 1019.2
20220812001550 13 31 0.0 0.0 0.00 0.00 0.00 81 1019.2
20220812000037 13 26 0.0 0.0 0.00 0.00 0.00 80 1019.2
20220811234539 13 25 0.0 0.0 0.00 0.00 0.00 80 1019.2
20220811231542 14 11 0.0 0.0 0.00 0.00 0.00 78 1019.4
20220811230057 15 11 0.0 0.0 0.00 0.00 0.00 77 1019.4
20220811224558 15 20 0.0 1.6 0.00 0.00 0.00 76 1019.4
20220811223119 15 346 0.0 1.6 0.00 0.00 0.00 75 1019.3
20220811221552 15 331 0.0 0.0 0.00 0.00 0.00 75 1019.4
20220811220112 16 5 0.0 4.8 0.00 0.00 0.00 74 1019.4
20220811214551 16 341 0.0 14.5 0.00 0.00 0.00 74 1019.3
20220811213015 16 345 0.0 0.0 0.00 0.00 0.00 72 1019.3
20220811211523 16 328 0.0 1.6 0.00 0.00 0.00 71 1019.1
20220811210014 17 321 0.0 0.0 0.00 0.00 0.00 69 1019.1
20220811204512 17 342 0.0 8.0 0.00 0.00 0.00 69 1019.3
20220811203015 17 342 0.0 0.0 0.00 0.00 0.00 68 1019.2
20220811201518 17 5 0.0 1.6 0.00 0.00 0.00 67 1019.0
20220811200019 17 16 0.0 3.2 0.00 0.00 0.00 66 1019.1
20220811194602 17 355 0.0 0.0 0.00 0.00 0.00 65 1019.3
20220811193039 18 48 0.0 0.0 0.00 0.00 0.00 65 1019.3
20220811191549 18 31 0.0 1.6 0.00 0.00 0.00 64 1019.4
20220811190039 18 350 0.0 8.0 0.00 0.00 0.00 62 1019.4
20220811184541 18 30 0.0 1.6 0.00 0.00 0.00 61 1019.2
20220811183046 18 334 0.0 9.7 0.00 0.00 0.00 60 1019.2
20220811181542 19 341 0.0 0.0 0.00 0.00 0.00 59 1019.2
20220811180047 20 341 0.0 8.0 0.00 0.00 0.00 57 1019.0
20220811174535 20 319 0.0 17.7 0.00 0.00 0.00 55 1018.9
20220811173036 21 26 0.0 9.7 0.00 0.00 0.00 53 1018.9
20220811171606 21 327 1.6 22.5 0.00 0.00 0.00 52 1018.8
20220811170100 22 344 4.8 29.0 0.00 0.00 0.00 48 1018.7
20220811164534 22 53 0.0 20.9 0.00 0.00 0.00 48 1018.6
20220811163028 23 343 6.4 25.7 0.00 0.00 0.00 45 1018.3
20220811161629 23 21 0.0 25.7 0.00 0.00 0.00 42 1018.2
20220811160025 23 313 0.0 17.7 0.00 0.00 0.00 44 1018.3
20220811154524 23 355 4.8 30.6 0.00 0.00 0.00 44 1018.3
20220811153050 24 17 0.0 17.7 0.00 0.00 0.00 45 1018.4
20220811151520 24 345 6.4 29.0 0.00 0.00 0.00 44 1018.5
20220811150029 24 304 0.0 19.3 0.00 0.00 0.00 42 1018.4
20220811144524 24 336 0.0 22.5 0.00 0.00 0.00 42 1018.4
20220811143036 25 314 1.6 19.3 0.00 0.00 0.00 43 1018.4
20220811141514 25 11 1.6 19.3 0.00 0.00 0.00 41 1018.4
20220811140021 25 9 0.0 6.4 0.00 0.00 0.00 43 1018.6
20220811134520 23 32 0.0 8.0 0.00 0.00 0.00 45 1018.9
20220811133010 23 341 0.0 3.2 0.00 0.00 0.00 46 1019.1
20220811131513 23 355 0.0 9.7 0.00 0.00 0.00 45 1019.3
20220811130002 23 334 0.0 29.0 0.00 0.00 0.00 42 1019.2
20220811124503 24 331 1.6 19.3 0.00 0.00 0.00 44 1019.2
20220811123107 23 348 0.0 14.5 0.00 0.00 0.00 44 1019.4
20220811121556 24 323 0.0 14.5 0.00 0.00 0.00 43 1019.4
20220811120056 24 19 1.6 17.7 0.00 0.00 0.00 43 1019.4
20220811114557 24 318 3.2 25.7 0.00 0.00 0.00 43 1019.6
20220811113144 24 5 1.6 20.9 0.00 0.00 0.00 43 1019.8
20220811111548 24 348 1.6 19.3 0.00 0.00 0.00 43 1019.8
20220811110105 24 324 0.0 19.3 0.00 0.00 0.00 43 1019.9
20220811104549 23 355 1.6 22.5 0.00 0.00 0.00 43 1020.0
20220811103120 23 27 0.0 20.9 0.00 0.00 0.00 45 1020.2
20220811101539 23 311 0.0 16.1 0.00 0.00 0.00 46 1020.4
20220811094541 23 15 0.0 6.4 0.00 0.00 0.00 51 1020.7
20220811093038 23 294 0.0 8.0 0.00 0.00 0.00 51 1020.6
20220811091533 22 360 0.0 12.9 0.00 0.00 0.00 53 1020.8
20220811090033 22 30 0.0 6.4 0.00 0.00 0.00 53 1020.9
20220811084518 22 11 0.0 22.5 0.00 0.00 0.00 55 1021.0
20220811083016 21 346 0.0 19.3 0.00 0.00 0.00 57 1021.1
20220811081510 21 345 0.0 16.1 0.00 0.00 0.00 57 1021.2
20220811080027 21 350 0.0 3.2 0.00 0.00 0.00 59 1021.3
20220811074505 20 348 0.0 9.7 0.00 0.00 0.00 61 1021.4
20220811073120 20 331 0.0 4.8 0.00 0.00 0.00 63 1021.5
20220811071558 18 306 1.6 19.3 0.00 0.00 0.00 65 1021.4
20220811071556 18 344 1.6 19.3 0.00 0.00 0.00 65 1021.4
20220811070101 18 343 0.0 0.0 0.00 0.00 0.00 68 1021.6
20220811064604 17 30 0.0 0.0 0.00 0.00 0.00 70 1021.7
20220811063048 16 355 0.0 0.0 0.00 0.00 0.00 73 1021.8
20220811061545 16 11 0.0 0.0 0.00 0.00 0.00 75 1021.8
20220811060005 15 351 0.0 0.0 0.00 0.00 0.00 76 1021.9
20220811054501 14 355 0.0 8.0 0.00 0.00 0.00 78 1021.9
20220811053135 13 326 0.0 1.6 0.00 0.00 0.00 79 1021.9
20220811051552 13 342 0.0 0.0 0.00 0.00 0.00 81 1022.0
20220811050052 13 312 0.0 3.2 0.00 0.00 0.00 82 1021.9
20220811044546 12 40 0.0 0.0 0.00 0.00 0.00 84 1021.9
20220811043055 12 40 0.0 0.0 0.00 0.00 0.00 85 1021.8
20220811041541 11 40 0.0 0.0 0.00 0.00 0.00 86 1021.9
20220811040053 11 44 0.0 0.0 0.00 0.00 0.00 85 1021.8
20220811034532 11 44 0.0 0.0 0.00 0.00 0.00 84 1021.9
20220811033111 12 44 0.0 0.0 0.00 0.00 0.00 84 1021.8
20220811030051 12 44 0.0 0.0 0.00 0.00 0.00 84 1021.8
20220811024552 12 44 0.0 0.0 0.00 0.00 0.00 83 1021.8
20220811023055 12 44 0.0 0.0 0.00 0.00 0.00 82 1021.7
20220811021558 12 44 0.0 0.0 0.00 0.00 0.00 82 1021.7
20220811020053 12 44 0.0 0.0 0.00 0.00 0.00 81 1021.9
20220811014553 12 44 0.0 0.0 0.00 0.00 0.00 81 1021.8
20220811013048 13 48 0.0 0.0 0.00 0.00 0.00 80 1022.0
20220811011537 13 49 0.0 0.0 0.00 0.00 0.00 78 1022.0
20220811010004 13 51 0.0 0.0 0.00 0.00 0.00 76 1022.1
20220811004519 14 51 0.0 0.0 0.00 0.00 0.00 77 1022.1